Vorticity
7 5 -2 -0 -1 21 -17 18 14 12 29 2 -1 1 1 1 1 -2 2 -1 -2 1 -0 26 4 14 5 6 12 3 -0 34 2 40 -0 1 0 9 7 9 8 5 4
0 3 10 8 7 12 24 22 18 19 -8 -10 0 -2 -3 -5 12 2 9 -2 5 3 7 11 11 3 6 8 10 12 5 4 21 12 37 -3 2 7 3 5 13 19 18
-1 1 2 12 2 -4 4 -27 5 -18 2 3 6 5 -0 1 -2 2 6 12 10 8 14 1 6 13 8 2 0 2 2 -4 9 13 34 43 -10 5 -1 6 6 -2 7
9 16 14 18 18 20 17 16 10 6 -1 6 1 -3 1 3 4 -4 14 7 12 10 4 9 3 13 1 7 2 4 5 2 3 2 8 5 32 21 -5 -2 8 3 7
18 18 10 7 13 9 4 -3 -1 0 7 -1 -1 3 5 7 16 17 8 8 13 18 7 5 2 1 -1 3 5 9 4 11 11 9 7 11 0 11 31 7 6 5 9
10 8 8 4 -5 -9 4 6 1 3 9 15 15 15 10 3 6 13 4 5 3 14 5 5 4 2 2 3 12 7 9 9 10 8 1 -2 22 17 23 19 14 7 5
14 8 1 3 5 5 8 14 18 13 16 15 16 18 16 15 12 11 11 11 11 7 7 8 9 12 14 12 12 9 12 10 7 5 3 4 7 25 27 5 14 7 4
4 4 7 9 15 17 8 5 4 7 9 9 7 6 5 5 6 7 10 8 8 8 8 8 9 9 11 10 9 8 7 7 10 5 5 9 6 15 28 -5 8 11 5
6 6 8 8 7 8 9 13 20 22 20 22 23 24 16 21 17 14 19 17 13 9 9 14 20 23 19 18 20 19 20 14 8 6 2 10 4 19 23 20 9 7 8
31 21 23 27 25 25 26 10 2 2 -2 -3 -2 3 6 7 7 2 2 3 6 8 8 4 3 2 -1 -0 2 7 9 9 22 21 11 5 11 6 21 5 5 9 18
-1 1 2 2 3 0 -1 -0 3 4 3 1 1 1 3 1 -0 2 2 2 2 2 2 3 5 6 6 5 5 4 4 4 4 7 21 16 7 17 9 15 -1 2 11
5 5 3 4 4 4 4 5 5 6 6 6 7 8 7 7 7 7 6 5 6 5 6 6 6 4 4 4 3 3 4 2 3 3 5 13 10 -0 10 26 6 0 -3
5 2 4 3 5 7 7 7 7 7 7 7 6 6 6 6 6 6 7 8 7 7 6 5 5 5 6 6 6 6 7 6 5 4 2 4 7 18 7 -2 27 11 22
3 4 7 6 5 4 3 3 3 3 3 3 3 3 4 4 4 3 4 5 5 4 2 1 3 3 4 5 4 5 6 7 6 6 7 7 3 4 9 12 10 16 4
2 2 3 4 3 4 5 4 3 4 5 4 2 1 1 0 0 1 4 7 7 5 8 9 6 5 4 4 3 2 2 2 5 7 6 4 6 10 4 1 5 11 -4
3 4 4 5 4 4 3 3 2 0 -3 -3 -0 3 1 -0 0 2 0 -1 3 5 5 9 10 9 8 7 8 8 5 4 3 4 7 7 7 2 3 8 11 3 -3
5 4 5 6 5 3 2 2 2 3 2 2 3 4 5 4 1 4 9 9 5 8 10 7 4 4 4 4 7 8 7 7 6 4 3 4 5 6 4 3 2 8 13
4 4 2 1 4 6 4 3 4 5 6 8 10 10 11 11 11 5 5 8 9 7 5 4 3 5 7 8 6 5 6 6 4 6 8 7 4 5 4 1 0 5 10
2 3 6 4 5 2 2 3 4 6 6 6 4 4 6 7 6 3 8 4 1 2 4 6 8 9 10 8 6 6 7 7 7 10 9 7 6 3 2 5 4 3 6
3 4 6 1 5 8 7 6 4 3 4 4 6 8 8 6 5 7 4 3 5 7 9 9 10 10 10 9 9 9 10 10 11 11 10 9 8 7 6 6 8 8 7
5 8 6 1 7 5 5 2 2 4 4 6 8 7 7 8 8 7 7 9 10 10 10 10 9 13 16 14 13 12 11 11 11 11 11 9 10 9 7 8 10 10 10
6 3 3 6 2 1 -1 -1 2 7 4 4 7 7 6 5 5 5 6 8 8 8 7 9 10 10 10 9 8 7 8 6 8 8 8 8 8 8 9 10 11 10 9
8 9 9 7 2 2 -2 1 9 3 7 8 11 10 9 11 13 12 10 7 4 4 5 6 7 7 6 4 8 8 10 11 11 11 8 8 7 7 8 7 9 10 10
10 2 1 8 6 5 6 10 6 7 9 11 9 8 9 8 7 7 7 7 6 7 7 5 6 7 10 12 10 12 11 15 14 10 11 11 11 10 9 10 9 9 11
5 4 5 7 6 8 12 7 9 15 8 8 9 5 5 5 5 5 4 7 8 10 13 14 13 11 10 13 15 15 14 10 11 11 10 12 17 18 11 10 10 9 8
7 7 10 11 11 5 10 11 9 2 8 0 3 7 6 3 1 1 1 3 5 7 7 6 8 11 15 18 13 12 11 9 9 8 7 9 8 5 8 18 18 16 12
Height
5841 5840 5838 5836 5835 5836 5833 5831 5832 5831 5830 5830 5827 5827 5828 5831 5830 5829 5829 5830 5830 5829 5830 5830 5830 5830 5829 5829 5829 5828 5826 5828 5827 5826 5829 5832 5832 5832 5835 5839 5840 5838 5841
5835 5834 5833 5830 5830 5831 5830 5829 5829 5828 5828 5828 5826 5827 5828 5827 5830 5827 5826 5826 5826 5824 5824 5826 5825 5825 5824 5825 5823 5823 5821 5820 5823 5822 5824 5825 5826 5827 5828 5834 5835 5836 5836
5832 5830 5830 5830 5828 5827 5827 5826 5824 5823 5825 5823 5822 5822 5823 5825 5824 5822 5822 5821 5819 5818 5818 5819 5820 5820 5819 5819 5819 5818 5817 5817 5819 5818 5819 5819 5819 5822 5823 5825 5831 5832 5833
5829 5828 5826 5826 5825 5824 5824 5824 5821 5820 5821 5820 5818 5818 5818 5818 5816 5818 5817 5815 5812 5813 5813 5814 5813 5815 5814 5813 5812 5811 5812 5813 5812 5812 5812 5812 5811 5814 5817 5819 5823 5827 5829
5824 5823 5824 5823 5822 5821 5821 5821 5820 5818 5817 5818 5816 5814 5813 5812 5813 5813 5812 5810 5807 5808 5809 5808 5808 5807 5807 5807 5806 5805 5806 5806 5806 5805 5806 5807 5806 5806 5807 5811 5815 5820 5823
5821 5821 5820 5819 5820 5820 5819 5817 5817 5817 5815 5814 5810 5809 5809 5807 5807 5806 5805 5805 5803 5804 5803 5802 5802 5802 5801 5801 5801 5799 5799 5799 5800 5800 5800 5799 5801 5799 5797 5800 5805 5812 5817
5818 5817 5816 5817 5817 5817 5815 5814 5813 5811 5811 5807 5806 5805 5804 5803 5802 5803 5801 5799 5799 5800 5799 5799 5797 5796 5796 5796 5794 5793 5793 5793 5792 5792 5794 5794 5794 5790 5789 5794 5798 5803 5811
5817 5815 5816 5815 5816 5813 5812 5812 5810 5809 5806 5804 5804 5802 5802 5801 5800 5799 5798 5797 5795 5795 5795 5794 5793 5792 5791 5789 5788 5788 5787 5787 5786 5786 5787 5788 5787 5784 5785 5787 5793 5799 5803
5815 5816 5815 5814 5813 5811 5811 5810 5809 5807 5805 5803 5802 5801 5800 5798 5797 5797 5796 5795 5793 5792 5792 5791 5790 5789 5787 5786 5785 5784 5783 5781 5779 5778 5780 5781 5781 5780 5779 5782 5786 5791 5797
5814 5814 5813 5812 5810 5809 5810 5809 5807 5805 5803 5801 5800 5798 5797 5795 5795 5794 5793 5792 5791 5790 5789 5789 5788 5787 5785 5784 5782 5780 5778 5777 5775 5774 5775 5778 5777 5776 5776 5778 5783 5785 5790
5814 5814 5812 5811 5810 5808 5807 5807 5805 5803 5801 5800 5798 5796 5795 5794 5792 5791 5789 5788 5787 5786 5786 5785 5784 5783 5782 5780 5778 5777 5776 5775 5772 5769 5770 5772 5773 5773 5772 5775 5779 5781 5783
5815 5814 5813 5811 5810 5808 5807 5806 5804 5801 5800 5798 5796 5795 5793 5791 5789 5787 5786 5785 5784 5782 5781 5780 5779 5778 5777 5776 5774 5772 5772 5771 5770 5768 5767 5767 5767 5768 5769 5770 5773 5776 5778
5814 5814 5812 5812 5810 5809 5807 5804 5801 5799 5797 5794 5792 5791 5789 5787 5785 5784 5782 5781 5779 5777 5776 5775 5773 5772 5770 5769 5768 5768 5766 5765 5764 5764 5763 5765 5763 5763 5763 5762 5765 5769 5772
5812 5812 5813 5811 5808 5805 5803 5800 5797 5795 5793 5791 5788 5787 5785 5783 5781 5779 5776 5774 5772 5769 5767 5766 5764 5763 5763 5762 5761 5759 5759 5759 5759 5758 5757 5757 5757 5758 5758 5758 5759 5762 5763
5811 5810 5808 5806 5804 5802 5799 5797 5794 5792 5790 5787 5784 5781 5779 5777 5774 5772 5770 5768 5765 5764 5762 5759 5757 5756 5754 5753 5752 5751 5750 5750 5751 5751 5750 5750 5750 5751 5751 5752 5753 5754 5756
5808 5806 5804 5801 5799 5796 5794 5792 5790 5788 5785 5782 5779 5776 5773 5770 5767 5764 5762 5759 5757 5754 5752 5750 5748 5746 5744 5743 5743 5742 5741 5741 5740 5740 5741 5741 5741 5742 5744 5744 5745 5746 5745
5803 5801 5799 5797 5794 5791 5789 5787 5785 5783 5780 5777 5773 5769 5766 5762 5758 5755 5752 5749 5747 5744 5741 5738 5736 5733 5731 5730 5730 5730 5729 5728 5728 5728 5729 5730 5730 5729 5731 5733 5734 5734 5735
5801 5799 5796 5793 5788 5785 5782 5780 5777 5774 5771 5767 5763 5759 5755 5751 5748 5744 5741 5737 5733 5730 5728 5726 5723 5721 5718 5716 5714 5713 5713 5713 5712 5712 5713 5716 5717 5716 5716 5716 5719 5721 5722
5798 5794 5790 5787 5783 5780 5776 5772 5768 5764 5760 5757 5753 5749 5744 5739 5735 5732 5728 5724 5721 5718 5716 5713 5710 5707 5705 5702 5699 5697 5696 5695 5695 5696 5696 5696 5699 5701 5702 5702 5703 5705 5708
5794 5790 5785 5780 5777 5773 5769 5765 5761 5757 5753 5749 5744 5740 5735 5730 5726 5721 5717 5712 5708 5704 5701 5699 5696 5694 5691 5687 5685 5683 5680 5678 5678 5678 5678 5678 5678 5680 5683 5686 5687 5689 5691
5788 5784 5780 5775 5770 5766 5761 5757 5752 5749 5744 5739 5733 5728 5723 5718 5714 5710 5706 5701 5696 5690 5685 5682 5680 5677 5675 5671 5669 5667 5664 5663 5661 5661 5660 5659 5659 5661 5663 5666 5671 5673 5675
5782 5777 5773 5767 5761 5756 5751 5745 5740 5736 5730 5727 5722 5717 5710 5704 5699 5694 5690 5686 5679 5674 5669 5666 5663 5660 5657 5655 5653 5650 5649 5648 5646 5644 5643 5642 5643 5644 5646 5649 5652 5655 5657
5774 5770 5765 5760 5754 5748 5742 5737 5732 5726 5721 5716 5710 5705 5700 5694 5688 5682 5676 5671 5664 5659 5655 5651 5647 5644 5642 5638 5637 5633 5630 5632 5629 5628 5626 5624 5623 5625 5626 5629 5631 5634 5637
5767 5762 5757 5751 5746 5741 5735 5728 5722 5717 5711 5705 5698 5691 5684 5678 5673 5667 5662 5656 5651 5645 5640 5635 5630 5626 5623 5620 5615 5615 5612 5612 5610 5610 5610 5609 5607 5606 5605 5605 5608 5611 5614
5757 5752 5746 5740 5736 5731 5725 5718 5713 5706 5698 5690 5683 5678 5672 5665 5658 5652 5646 5641 5636 5630 5624 5617 5612 5606 5601 5598 5594 5592 5590 5588 5587 5586 5590 5591 5589 5588 5588 5587 5586 5586 5589
5746 5741 5736 5731 5725 5718 5710 5703 5696 5688 5681 5675 5668 5662 5656 5649 5642 5634 5626 5619 5613 5607 5601 5595 5589 5584 5579 5577 5572 5569 5566 5564 5562 5561 5563 5565 5565 5569 5569 5569 5568 5566 5566